CFG2LW EDDN-EDDL

Flight info

Callsign CFG2LW
Flight time 1h 0m
Altitude 24000
Route SULUS1G/28 SULUS L604 MASEK Z52 ARPEG Z850 ADEMI T854 DOMUX DOMUX1A
Aircraft A321/M-SDE3FGHIRWY/LB1

Departure

Time 2026-05-04 18:30
Airport Nuremberg Airport (EDDN)

Arrival

Time 2026-05-04 19:31
Airport Düsseldorf Airport (EDDL)
Time Latitude Longitude Altitude Speed Heading
2026-05-04 17:29 49.49552 11.07456 1026 ft 0 kts 188°
2026-05-04 18:16 49.49562 11.07458 1026 ft 4 kts 188°
2026-05-04 18:16 49.49584 11.07463 1025 ft 4 kts 185°
2026-05-04 18:17 49.49619 11.07425 1025 ft 4 kts 99°
2026-05-04 18:17 49.49620 11.07417 1025 ft 0 kts 98°
2026-05-04 18:20 49.49613 11.07488 1021 ft 12 kts 98°
2026-05-04 18:20 49.49601 11.07613 1023 ft 11 kts 98°
2026-05-04 18:20 49.49591 11.07714 1024 ft 8 kts 98°
2026-05-04 18:20 49.49581 11.07819 1026 ft 14 kts 98°
2026-05-04 18:21 49.49566 11.07964 1027 ft 13 kts 98°
2026-05-04 18:21 49.49553 11.08096 1028 ft 13 kts 98°
2026-05-04 18:21 49.49541 11.08223 1026 ft 11 kts 98°
2026-05-04 18:21 49.49542 11.08322 1030 ft 7 kts 59°
2026-05-04 18:22 49.49568 11.08347 1031 ft 2 kts 20°
2026-05-04 18:22 49.49600 11.08368 1033 ft 10 kts 37°
2026-05-04 18:22 49.49610 11.08485 1035 ft 12 kts 97°
2026-05-04 18:22 49.49592 11.08669 1036 ft 22 kts 99°
2026-05-04 18:23 49.49570 11.08895 1038 ft 20 kts 98°
2026-05-04 18:23 49.49549 11.09097 1041 ft 18 kts 99°
2026-05-04 18:23 49.49532 11.09264 1044 ft 14 kts 99°
2026-05-04 18:23 49.49540 11.09379 1046 ft 9 kts 60°
2026-05-04 18:24 49.49567 11.09439 1048 ft 5 kts 54°
2026-05-04 18:24 49.49584 11.09475 1049 ft 3 kts 53°
2026-05-04 18:24 49.49586 11.09479 1049 ft 0 kts 53°
2026-05-04 18:27 49.49594 11.09497 1050 ft 6 kts 53°
2026-05-04 18:28 49.49646 11.09568 1052 ft 11 kts 17°
2026-05-04 18:28 49.49700 11.09506 1052 ft 11 kts 288°
2026-05-04 18:28 49.49707 11.09456 1051 ft 0 kts 281°
2026-05-04 18:29 49.49723 11.09313 1048 ft 47 kts 279°
2026-05-04 18:29 49.49807 11.08450 1036 ft 113 kts 278°
2026-05-04 18:29 49.49950 11.06973 1027 ft 163 kts 278°
2026-05-04 18:30 49.50310 11.03337 1994 ft 169 kts 278°
2026-05-04 18:30 49.50492 11.01553 2587 ft 172 kts 279°
2026-05-04 18:30 49.50688 10.99637 2855 ft 190 kts 279°
2026-05-04 18:31 49.50900 10.97542 3100 ft 208 kts 278°
2026-05-04 18:31 49.51149 10.95205 3257 ft 235 kts 283°
2026-05-04 18:31 49.51850 10.92834 3726 ft 253 kts 311°
2026-05-04 18:31 49.53354 10.91453 4470 ft 263 kts 345°
2026-05-04 18:32 49.55190 10.91322 5297 ft 268 kts
2026-05-04 18:32 49.57054 10.91688 6087 ft 271 kts
2026-05-04 18:32 49.58935 10.92078 6848 ft 275 kts
2026-05-04 18:32 49.60852 10.92403 7581 ft 278 kts 360°
2026-05-04 18:33 49.62761 10.92039 8286 ft 279 kts 343°
2026-05-04 18:33 49.64656 10.91267 8989 ft 283 kts 343°
2026-05-04 18:33 49.66549 10.90472 9686 ft 287 kts 342°
2026-05-04 18:33 49.68502 10.89641 10393 ft 290 kts 342°
2026-05-04 18:34 49.70453 10.88805 11099 ft 293 kts 342°
2026-05-04 18:34 49.72398 10.87971 11812 ft 296 kts 342°
2026-05-04 18:34 49.74395 10.87118 12536 ft 299 kts 342°
2026-05-04 18:34 49.76412 10.86255 13246 ft 303 kts 342°
2026-05-04 18:35 49.78454 10.85380 13937 ft 306 kts 342°
2026-05-04 18:35 49.80515 10.84499 14592 ft 309 kts 342°
2026-05-04 18:35 49.82597 10.83608 15212 ft 312 kts 343°
2026-05-04 18:35 49.84701 10.82709 15817 ft 315 kts 343°
2026-05-04 18:36 49.86830 10.81799 16298 ft 323 kts 343°
2026-05-04 18:36 49.89061 10.80840 16423 ft 342 kts 343°
2026-05-04 18:36 49.91376 10.79839 16550 ft 359 kts 343°
2026-05-04 18:36 49.93828 10.78777 16838 ft 370 kts 343°
2026-05-04 18:37 49.96324 10.77702 17330 ft 375 kts 343°
2026-05-04 18:37 49.98847 10.76619 17856 ft 378 kts 343°
2026-05-04 18:37 50.01393 10.75526 18406 ft 381 kts 343°
2026-05-04 18:37 50.03962 10.74423 18925 ft 384 kts 343°
2026-05-04 18:38 50.06491 10.73059 19392 ft 386 kts 332°
2026-05-04 18:38 50.08737 10.70788 19863 ft 387 kts 318°
2026-05-04 18:38 50.10636 10.67818 20335 ft 388 kts 312°
2026-05-04 18:38 50.12514 10.64727 20799 ft 391 kts 312°
2026-05-04 18:39 50.14376 10.61666 21261 ft 393 kts 312°
2026-05-04 18:39 50.16240 10.58599 21694 ft 396 kts 312°
2026-05-04 18:39 50.18143 10.55471 22142 ft 399 kts 312°
2026-05-04 18:39 50.20058 10.52327 22506 ft 401 kts 312°
2026-05-04 18:40 50.21980 10.49164 22748 ft 402 kts 312°
2026-05-04 18:40 50.23911 10.46000 23001 ft 403 kts 313°
2026-05-04 18:40 50.25867 10.42847 23244 ft 405 kts 313°
2026-05-04 18:40 50.27842 10.39689 23505 ft 406 kts 313°
2026-05-04 18:41 50.29822 10.36525 23757 ft 408 kts 313°
2026-05-04 18:41 50.31804 10.33345 23942 ft 410 kts 313°
2026-05-04 18:41 50.33756 10.30198 24006 ft 406 kts 313°
2026-05-04 18:41 50.35669 10.26964 24014 ft 403 kts 306°
2026-05-04 18:42 50.37129 10.23236 24008 ft 402 kts 298°
2026-05-04 18:42 50.38465 10.19398 24008 ft 402 kts 298°
2026-05-04 18:42 50.39797 10.15545 24010 ft 402 kts 297°
2026-05-04 18:42 50.41122 10.11692 24008 ft 402 kts 297°
2026-05-04 18:43 50.42449 10.07827 24008 ft 402 kts 297°
2026-05-04 18:43 50.43775 10.03963 24009 ft 403 kts 297°
2026-05-04 18:43 50.45104 10.00088 24011 ft 404 kts 297°
2026-05-04 18:43 50.46417 9.96253 24011 ft 405 kts 297°
2026-05-04 18:44 50.47747 9.92356 24014 ft 405 kts 297°
2026-05-04 18:44 50.48628 9.89775 24015 ft 405 kts 297°
2026-05-04 18:44 50.50404 9.84570 24020 ft 404 kts 297°
2026-05-04 18:44 50.51727 9.80675 24020 ft 404 kts 297°
2026-05-04 18:45 50.53044 9.76787 24021 ft 403 kts 297°
2026-05-04 18:45 50.54362 9.72897 24022 ft 403 kts 297°
2026-05-04 18:45 50.55678 9.69015 24022 ft 402 kts 297°
2026-05-04 18:45 50.56975 9.65183 24021 ft 402 kts 297°
2026-05-04 18:46 50.58282 9.61311 24019 ft 402 kts 297°
2026-05-04 18:46 50.59593 9.57424 24017 ft 401 kts 297°
2026-05-04 18:46 50.60898 9.53545 24014 ft 401 kts 297°
2026-05-04 18:46 50.62206 9.49662 24013 ft 401 kts 297°
2026-05-04 18:47 50.63513 9.45781 24011 ft 401 kts 297°
2026-05-04 18:47 50.64817 9.41893 24010 ft 401 kts 297°
2026-05-04 18:47 50.66114 9.38002 24008 ft 401 kts 297°
2026-05-04 18:47 50.67414 9.34108 24007 ft 401 kts 297°
2026-05-04 18:48 50.68713 9.30218 24006 ft 401 kts 297°
2026-05-04 18:48 50.69994 9.26376 24005 ft 401 kts 297°
2026-05-04 18:48 50.71290 9.22481 24005 ft 401 kts 297°
2026-05-04 18:48 50.72586 9.18579 24005 ft 401 kts 297°
2026-05-04 18:49 50.73879 9.14676 24007 ft 401 kts 297°
2026-05-04 18:49 50.75168 9.10774 24006 ft 401 kts 297°
2026-05-04 18:49 50.76457 9.06872 24006 ft 401 kts 297°
2026-05-04 18:49 50.77747 9.02963 24010 ft 401 kts 297°
2026-05-04 18:50 50.79033 8.99059 24006 ft 400 kts 297°
2026-05-04 18:50 50.80296 8.95210 24005 ft 400 kts 297°
2026-05-04 18:50 50.81556 8.91369 24004 ft 384 kts 297°
2026-05-04 18:50 50.82759 8.87706 24010 ft 367 kts 297°
2026-05-04 18:51 50.83920 8.84198 24006 ft 354 kts 297°
2026-05-04 18:51 50.85064 8.80773 24008 ft 352 kts 297°
2026-05-04 18:51 50.86212 8.77351 24008 ft 351 kts 297°
2026-05-04 18:51 50.87532 8.74113 24009 ft 352 kts 313°
2026-05-04 18:52 50.89477 8.71766 24010 ft 355 kts 331°
2026-05-04 18:52 50.91702 8.70043 24009 ft 356 kts 334°
2026-05-04 18:52 50.93920 8.68418 24008 ft 356 kts 334°
2026-05-04 18:52 50.96173 8.66776 24009 ft 357 kts 334°
2026-05-04 18:53 50.98429 8.65133 24009 ft 357 kts 334°
2026-05-04 18:53 51.00684 8.63491 24007 ft 357 kts 334°
2026-05-04 18:53 51.02939 8.61848 24004 ft 356 kts 334°
2026-05-04 18:53 51.05196 8.60202 24003 ft 357 kts 334°
2026-05-04 18:54 51.07449 8.58558 24000 ft 357 kts 334°
2026-05-04 18:54 51.09704 8.56908 23999 ft 357 kts 333°
2026-05-04 18:54 51.11936 8.55242 23999 ft 349 kts 333°
2026-05-04 18:54 51.14064 8.53682 24004 ft 333 kts 334°
2026-05-04 18:55 51.16129 8.52198 24006 ft 320 kts 334°
2026-05-04 18:55 51.20197 8.49255 24009 ft 322 kts 334°
2026-05-04 18:55 51.22234 8.47774 24008 ft 322 kts 334°
2026-05-04 18:56 51.24271 8.46292 24009 ft 321 kts 334°
2026-05-04 18:56 51.26303 8.44811 24009 ft 321 kts 334°
2026-05-04 18:56 51.28336 8.43332 24008 ft 321 kts 334°
2026-05-04 18:56 51.30372 8.41863 24009 ft 321 kts 334°
2026-05-04 18:57 51.32421 8.40442 24000 ft 321 kts 341°
2026-05-04 18:57 51.34616 8.39953 23667 ft 321 kts
2026-05-04 18:57 51.36807 8.40622 23243 ft 321 kts 13°
2026-05-04 18:57 51.38963 8.41545 22840 ft 320 kts 13°
2026-05-04 18:58 51.41072 8.42477 22454 ft 319 kts 14°
2026-05-04 18:58 51.43203 8.43426 22086 ft 317 kts 14°
2026-05-04 18:58 51.45316 8.44363 21995 ft 315 kts 13°
2026-05-04 18:58 51.47442 8.45263 22008 ft 316 kts 13°
2026-05-04 18:59 51.49572 8.46155 22009 ft 316 kts 13°
2026-05-04 18:59 51.51701 8.47048 22009 ft 317 kts 13°
2026-05-04 18:59 51.53832 8.47942 22009 ft 317 kts 13°
2026-05-04 18:59 51.55966 8.48837 22009 ft 316 kts 13°
2026-05-04 19:00 51.58092 8.49730 22009 ft 316 kts 13°
2026-05-04 19:00 51.60220 8.50625 22009 ft 316 kts 13°
2026-05-04 19:00 51.62365 8.51245 22006 ft 311 kts 356°
2026-05-04 19:00 51.64453 8.50539 22009 ft 307 kts 332°
2026-05-04 19:01 51.66126 8.48558 22010 ft 304 kts 309°
2026-05-04 19:01 51.67425 8.45875 22010 ft 304 kts 304°
2026-05-04 19:01 51.68654 8.43091 22009 ft 305 kts 304°
2026-05-04 19:01 51.69871 8.40297 22009 ft 305 kts 304°
2026-05-04 19:02 51.71088 8.37496 22009 ft 305 kts 304°
2026-05-04 19:02 51.72304 8.34694 22009 ft 305 kts 304°
2026-05-04 19:02 51.73518 8.31893 22009 ft 305 kts 304°
2026-05-04 19:02 51.74732 8.29089 22009 ft 305 kts 304°
2026-05-04 19:03 51.75945 8.26284 22009 ft 305 kts 304°
2026-05-04 19:03 51.77152 8.23490 21766 ft 303 kts 304°
2026-05-04 19:03 51.78339 8.20743 21364 ft 302 kts 304°
2026-05-04 19:03 51.79537 8.17972 21001 ft 300 kts 304°
2026-05-04 19:04 51.80725 8.15225 20628 ft 298 kts 304°
2026-05-04 19:04 51.81906 8.12488 20255 ft 296 kts 304°
2026-05-04 19:04 51.83078 8.09771 19892 ft 294 kts 304°
2026-05-04 19:04 51.84243 8.07069 19527 ft 292 kts 304°
2026-05-04 19:05 51.85229 8.04230 19143 ft 288 kts 287°
2026-05-04 19:05 51.85518 8.01063 18767 ft 285 kts 265°
2026-05-04 19:05 51.85040 7.97984 18380 ft 284 kts 243°
2026-05-04 19:05 51.83875 7.95434 17985 ft 284 kts 222°
2026-05-04 19:06 51.82246 7.93619 17587 ft 285 kts 214°
2026-05-04 19:06 51.80599 7.91926 17212 ft 284 kts 213°
2026-05-04 19:06 51.78925 7.90241 16949 ft 284 kts 213°
2026-05-04 19:06 51.77249 7.88569 16713 ft 283 kts 213°
2026-05-04 19:07 51.75580 7.86912 16465 ft 282 kts 213°
2026-05-04 19:07 51.73911 7.85257 16215 ft 281 kts 213°
2026-05-04 19:07 51.72247 7.83607 15964 ft 280 kts 213°
2026-05-04 19:07 51.70594 7.81967 15714 ft 279 kts 213°
2026-05-04 19:08 51.68950 7.80331 15463 ft 277 kts 213°
2026-05-04 19:08 51.67310 7.78699 15293 ft 276 kts 213°
2026-05-04 19:08 51.65676 7.77073 15187 ft 276 kts 213°
2026-05-04 19:08 51.64045 7.75448 15091 ft 276 kts 213°
2026-05-04 19:09 51.62436 7.73847 14995 ft 275 kts 213°
2026-05-04 19:09 51.60808 7.72231 14894 ft 275 kts 213°
2026-05-04 19:09 51.59183 7.70618 14707 ft 273 kts 213°
2026-05-04 19:09 51.57571 7.69020 14371 ft 272 kts 213°
2026-05-04 19:10 51.55966 7.67433 14043 ft 271 kts 213°
2026-05-04 19:10 51.54363 7.65849 13723 ft 269 kts 213°
2026-05-04 19:10 51.52772 7.64278 13394 ft 268 kts 213°
2026-05-04 19:10 51.51190 7.62717 13062 ft 266 kts 213°
2026-05-04 19:11 51.49613 7.61163 12725 ft 265 kts 213°
2026-05-04 19:11 51.48045 7.59618 12389 ft 264 kts 213°
2026-05-04 19:11 51.46487 7.58085 12121 ft 261 kts 213°
2026-05-04 19:11 51.44949 7.56573 11869 ft 258 kts 213°
2026-05-04 19:12 51.43447 7.55076 11613 ft 257 kts 217°
2026-05-04 19:12 51.40931 7.51141 11127 ft 251 kts 236°
2026-05-04 19:12 51.39970 7.48812 11003 ft 251 kts 238°
2026-05-04 19:13 51.39009 7.46480 11007 ft 251 kts 238°
2026-05-04 19:13 51.38043 7.44148 11009 ft 251 kts 237°
2026-05-04 19:13 51.37074 7.41821 11009 ft 252 kts 237°
2026-05-04 19:13 51.36105 7.39497 10931 ft 250 kts 237°
2026-05-04 19:14 51.35143 7.37188 10618 ft 249 kts 237°
2026-05-04 19:14 51.34182 7.34884 10293 ft 248 kts 237°
2026-05-04 19:14 51.33224 7.32590 9988 ft 247 kts 237°
2026-05-04 19:14 51.32271 7.30312 9679 ft 246 kts 237°
2026-05-04 19:15 51.31336 7.28076 9382 ft 245 kts 237°
2026-05-04 19:15 51.30391 7.25817 9074 ft 244 kts 237°
2026-05-04 19:15 51.29450 7.23571 8770 ft 242 kts 237°
2026-05-04 19:15 51.28514 7.21340 8460 ft 241 kts 237°
2026-05-04 19:16 51.27580 7.19116 8217 ft 241 kts 237°
2026-05-04 19:16 51.26663 7.16894 7973 ft 239 kts 242°
2026-05-04 19:16 51.26214 7.14379 7712 ft 236 kts 270°
2026-05-04 19:16 51.26560 7.11855 7461 ft 236 kts 297°
2026-05-04 19:17 51.27602 7.09855 7220 ft 238 kts 321°
2026-05-04 19:17 51.28877 7.08178 7037 ft 237 kts 315°
2026-05-04 19:17 51.30061 7.06347 6730 ft 236 kts 314°
2026-05-04 19:17 51.31207 7.04529 6437 ft 235 kts 313°
2026-05-04 19:18 51.32364 7.02687 6159 ft 234 kts 313°
2026-05-04 19:18 51.33511 7.00862 6040 ft 233 kts 313°
2026-05-04 19:18 51.34665 6.99027 6042 ft 234 kts 313°
2026-05-04 19:18 51.35819 6.97191 6042 ft 234 kts 313°
2026-05-04 19:19 51.36974 6.95353 6042 ft 234 kts 314°
2026-05-04 19:19 51.38316 6.93901 6038 ft 237 kts 341°
2026-05-04 19:19 51.39960 6.93760 6041 ft 242 kts 12°
2026-05-04 19:19 51.41485 6.94908 6046 ft 246 kts 31°
2026-05-04 19:20 51.42908 6.96442 6044 ft 247 kts 33°
2026-05-04 19:20 51.44292 6.98003 6042 ft 247 kts 33°
2026-05-04 19:20 51.45691 6.99591 6042 ft 247 kts 33°
2026-05-04 19:20 51.47092 7.01186 6043 ft 247 kts 33°
2026-05-04 19:21 51.48488 7.02778 5910 ft 245 kts 33°
2026-05-04 19:21 51.49874 7.04364 5633 ft 244 kts 33°
2026-05-04 19:21 51.51257 7.05944 5361 ft 244 kts 33°
2026-05-04 19:21 51.52639 7.07522 5131 ft 243 kts 33°
2026-05-04 19:22 51.54009 7.09095 4883 ft 242 kts 37°
2026-05-04 19:22 51.54773 7.10402 4719 ft 243 kts 58°
2026-05-04 19:22 51.55270 7.12957 4461 ft 242 kts 90°
2026-05-04 19:22 51.54570 7.16260 4126 ft 238 kts 134°
2026-05-04 19:23 51.53267 7.17673 3982 ft 220 kts 167°
2026-05-04 19:23 51.51812 7.17694 3784 ft 207 kts 197°
2026-05-04 19:23 51.50443 7.16997 3477 ft 206 kts 202°
2026-05-04 19:23 51.49109 7.16194 3186 ft 205 kts 204°
2026-05-04 19:24 51.48211 7.15642 3077 ft 204 kts 205°
2026-05-04 19:24 51.47073 7.14394 3039 ft 201 kts 230°
2026-05-04 19:24 51.46216 7.12625 3043 ft 202 kts 234°
2026-05-04 19:24 51.45377 7.10827 3043 ft 202 kts 235°
2026-05-04 19:25 51.44537 7.09036 3042 ft 201 kts 235°
2026-05-04 19:25 51.43693 7.07240 3043 ft 201 kts 235°
2026-05-04 19:25 51.42851 7.05451 3042 ft 201 kts 235°
2026-05-04 19:25 51.42007 7.03660 3042 ft 201 kts 235°
2026-05-04 19:26 51.41164 7.01871 3042 ft 201 kts 235°
2026-05-04 19:26 51.40332 7.00106 3043 ft 200 kts 235°
2026-05-04 19:26 51.39529 6.98408 3041 ft 182 kts 235°
2026-05-04 19:26 51.38784 6.96830 2987 ft 175 kts 235°
2026-05-04 19:27 51.38059 6.95296 2812 ft 171 kts 235°
2026-05-04 19:27 51.37342 6.93780 2606 ft 170 kts 236°
2026-05-04 19:27 51.36632 6.92278 2389 ft 169 kts 235°
2026-05-04 19:27 51.35924 6.90782 2159 ft 167 kts 235°
2026-05-04 19:28 51.35241 6.89340 1945 ft 158 kts 234°
2026-05-04 19:28 51.34590 6.87968 1744 ft 149 kts 235°
2026-05-04 19:28 51.33981 6.86683 1537 ft 142 kts 235°
2026-05-04 19:28 51.33398 6.85455 1363 ft 139 kts 235°
2026-05-04 19:29 51.32817 6.84229 1184 ft 139 kts 235°
2026-05-04 19:29 51.32230 6.82994 991 ft 139 kts 235°
2026-05-04 19:29 51.31652 6.81768 807 ft 138 kts 236°
2026-05-04 19:29 51.31075 6.80536 639 ft 139 kts 235°
2026-05-04 19:30 51.30488 6.79302 427 ft 141 kts 234°
2026-05-04 19:30 51.29893 6.78059 241 ft 141 kts 234°
2026-05-04 19:30 51.29312 6.76848 134 ft 128 kts 234°
2026-05-04 19:30 51.28919 6.76016 124 ft 51 kts 231°
2026-05-04 19:31 51.28785 6.75783 127 ft 21 kts 218°
2026-05-04 19:31 51.28654 6.75684 123 ft 21 kts 190°
2026-05-04 19:31 51.28527 6.75709 124 ft 14 kts 158°
2026-05-04 19:31 51.28490 6.75742 120 ft 0 kts 146°
2026-05-04 19:32 51.28486 6.75746 120 ft 3 kts 146°
2026-05-04 19:32 51.28458 6.75779 122 ft 4 kts 142°
2026-05-04 19:32 51.28449 6.75790 123 ft 0 kts 143°
2026-05-04 19:38 51.28445 6.75794 123 ft 4 kts 143°
2026-05-04 19:38 51.28380 6.75876 125 ft 16 kts 142°
2026-05-04 19:39 51.28310 6.75963 128 ft 12 kts 142°
2026-05-04 19:39 51.28210 6.75963 127 ft 14 kts 205°
2026-05-04 19:39 51.28186 6.75944 126 ft 0 kts 206°
2026-05-04 19:40 51.28183 6.75943 126 ft 1 kts 206°
2026-05-04 19:40 51.28165 6.75928 125 ft 5 kts 207°
2026-05-04 19:40 51.28136 6.75904 127 ft 3 kts 208°
2026-05-04 19:41 51.28119 6.75890 126 ft 7 kts 206°
2026-05-04 19:41 51.28052 6.75841 124 ft 12 kts 203°
2026-05-04 19:41 51.27962 6.75820 127 ft 14 kts 184°
2026-05-04 19:41 51.27847 6.75814 129 ft 17 kts 181°
2026-05-04 19:42 51.27745 6.75812 130 ft 12 kts 181°
2026-05-04 19:42 51.27662 6.75810 128 ft 14 kts 178°
2026-05-04 19:42 51.27586 6.75857 126 ft 6 kts 139°
2026-05-04 19:42 51.27581 6.75875 128 ft 0 kts 101°
2026-05-04 19:43 51.27582 6.75899 127 ft 5 kts 81°
2026-05-04 19:43 51.27594 6.75943 129 ft 2 kts 65°
2026-05-04 19:43 51.27596 6.75950 129 ft 2 kts 65°
2026-05-04 19:43 51.27597 6.75953 129 ft 0 kts 65°